Theta_e
338 338 335 333 333 334 335 335 333 331 330 330 332 333 334 335 336 336 335 334 332 333 333 334 334 334 336 337 339 341 342 342 342 344 345 345 344 344 344 345 346 347 347 348 350 350 350 350 351 351 351 350 348 345 344 343 342 341 340 340 339 338 338 338 339 338 338 338 338 338 337 337 338 338
337 337 336 334 332 333 333 333 330 327 326 328 330 331 332 334 336 336 335 334 333 333 333 333 334 334 335 335 336 339 342 342 343 344 345 344 343 344 344 344 344 345 346 347 348 349 349 349 350 351 351 351 350 348 347 345 344 343 342 342 341 340 340 339 339 338 338 337 336 336 336 337 338 339
337 337 336 333 332 332 332 331 328 324 323 325 326 326 327 329 331 332 332 331 330 330 331 331 332 333 334 335 336 336 338 339 341 344 346 345 343 344 344 344 344 345 346 347 347 348 348 349 350 351 352 351 350 349 348 347 347 346 345 345 344 343 342 341 341 340 339 338 337 337 338 339 340 340
336 336 335 332 331 332 332 331 328 324 322 324 325 325 325 325 325 326 328 329 327 326 327 328 328 330 331 333 335 336 335 335 337 341 344 346 345 344 343 343 343 345 346 346 347 347 348 349 350 351 351 351 350 349 349 349 348 347 346 346 345 345 344 344 343 342 341 339 338 338 339 340 340 340
335 334 334 332 331 331 332 331 328 325 324 324 325 325 325 324 324 325 326 327 327 325 325 325 326 327 329 332 333 335 336 335 335 338 341 344 346 345 344 343 343 344 345 346 347 348 349 350 351 351 350 350 350 349 349 349 348 347 345 344 344 344 345 345 345 344 342 340 339 339 339 339 339 339
334 333 334 332 331 331 331 330 329 327 325 325 325 325 325 325 324 324 325 326 326 326 325 325 325 325 327 330 333 334 336 336 337 338 339 342 344 345 344 343 343 343 344 346 346 347 349 350 351 351 350 350 349 349 349 348 347 346 343 342 342 342 343 343 344 344 344 342 341 340 339 339 338 337
334 334 333 332 331 331 331 330 329 327 326 325 325 325 325 325 325 325 325 325 326 326 325 324 324 325 326 329 332 334 335 336 337 338 339 340 342 342 343 343 342 342 343 345 346 347 348 350 351 350 350 349 349 349 349 348 347 346 344 342 341 340 339 340 342 343 344 343 342 341 340 338 337 338
333 334 333 332 331 331 331 330 329 328 326 325 325 324 324 325 325 325 325 325 325 325 325 325 324 324 325 327 330 333 335 336 337 337 338 339 340 341 341 342 342 342 342 345 346 347 348 349 350 350 350 349 350 350 349 349 348 347 346 344 341 339 337 338 341 343 343 343 342 341 339 337 338 340
333 333 333 331 331 331 330 330 329 327 326 324 324 324 324 325 325 326 326 326 325 325 325 325 324 324 325 326 329 332 334 335 336 336 337 339 340 340 341 342 342 341 342 343 344 346 347 347 349 350 350 349 349 349 349 349 348 347 346 344 341 338 338 339 341 342 342 343 342 340 339 338 340 342
332 333 332 331 331 330 329 329 328 328 326 325 325 325 325 326 326 326 326 326 326 325 325 325 325 325 325 326 329 331 333 335 336 337 338 339 340 341 342 342 343 342 342 343 342 342 344 346 348 350 350 349 349 349 349 348 348 347 346 345 342 339 339 340 341 342 342 342 341 340 339 340 342 343
332 331 331 331 331 330 329 328 328 328 327 327 327 327 327 327 327 327 327 326 326 325 325 325 325 325 325 326 328 330 332 334 336 337 338 339 340 341 341 343 345 345 344 345 344 344 344 346 348 350 350 349 348 347 348 348 347 347 347 347 344 341 339 340 341 342 342 341 341 341 341 342 343 344
330 330 330 331 331 330 330 328 328 328 328 329 329 328 328 328 328 328 327 326 325 325 325 324 324 325 326 327 328 330 332 334 335 336 338 339 340 340 341 343 345 347 347 347 347 346 346 347 349 351 351 349 348 347 347 348 348 348 348 349 347 344 341 341 341 342 342 342 342 342 342 343 344 346
329 330 330 330 330 330 330 329 329 329 329 330 330 329 329 329 329 327 326 325 325 324 324 324 325 325 325 326 327 329 331 333 334 335 337 338 339 340 341 342 343 345 346 347 347 346 345 346 348 350 350 349 348 347 348 349 349 349 350 350 348 345 342 342 342 342 342 342 342 342 342 344 345 345
329 330 330 330 330 330 330 330 330 329 330 330 330 330 329 330 329 327 326 325 324 324 324 324 325 325 325 326 326 328 329 331 332 334 336 337 338 339 341 341 341 342 344 345 345 345 345 346 348 349 350 349 348 348 348 348 349 350 349 348 346 344 343 343 342 342 342 342 342 342 343 344 344 342
329 330 330 330 329 330 330 330 331 330 330 331 331 330 330 330 328 326 325 324 324 324 324 324 325 325 325 325 326 327 328 329 330 333 335 337 338 339 340 341 341 342 343 344 345 345 344 346 348 349 350 349 347 346 346 347 348 349 347 344 343 343 343 343 342 342 342 342 343 343 343 342 341 340
329 330 329 329 329 329 329 329 331 330 330 331 331 331 331 329 326 324 323 323 323 323 324 325 325 325 325 325 326 326 327 328 329 331 333 336 338 339 339 340 341 341 342 344 346 346 345 346 348 349 349 349 348 346 344 345 348 349 346 342 341 341 342 342 342 342 342 343 343 342 341 339 339 339
329 329 329 329 328 327 328 329 329 329 330 330 331 331 329 325 323 322 322 322 323 324 324 325 325 325 325 325 325 326 326 327 328 329 331 333 336 338 338 339 340 341 342 344 347 347 346 347 348 348 349 349 349 347 346 346 349 349 346 342 340 341 341 342 342 343 342 342 341 339 338 338 339 339
329 329 329 329 328 328 328 328 328 329 330 331 330 329 327 323 322 322 321 321 323 324 324 325 325 325 325 325 325 325 325 325 326 327 328 330 334 337 338 338 339 341 342 343 346 347 347 348 347 346 348 350 349 349 348 348 349 350 348 344 341 341 341 342 342 342 341 340 339 338 338 339 340 340
330 329 329 328 329 328 327 327 328 330 331 331 330 328 325 323 322 320 320 321 323 324 324 325 325 325 325 325 325 326 326 326 326 326 327 328 331 334 336 338 338 340 341 343 346 346 346 348 347 346 348 350 350 350 350 349 349 349 348 346 343 341 340 341 341 340 339 339 340 340 340 341 341 341
330 329 329 329 329 327 326 328 329 331 331 330 328 326 324 322 321 320 320 322 323 323 324 324 325 325 325 326 326 326 327 326 326 326 326 327 328 329 334 338 338 339 341 342 345 345 345 347 347 347 348 350 350 350 350 350 350 349 348 347 345 342 340 339 339 339 339 340 341 341 342 342 342 341
328 329 330 330 327 325 327 328 329 330 329 326 324 323 323 323 322 321 321 322 322 322 323 323 324 325 325 325 326 326 326 327 327 326 325 326 327 327 332 337 339 340 341 342 343 344 344 345 346 347 348 349 349 349 349 350 350 349 349 349 347 345 342 341 340 340 340 340 341 342 343 344 343 342
327 329 329 327 324 325 326 326 327 327 325 324 323 323 324 324 324 323 323 324 323 322 321 322 323 324 324 324 325 325 325 326 327 326 325 326 327 328 331 336 339 340 341 341 342 343 344 344 345 347 348 348 348 349 349 349 349 349 349 350 350 349 347 345 344 343 343 343 344 346 347 346 344 343
325 326 325 323 324 326 325 325 327 327 324 324 325 325 325 325 324 324 325 326 325 323 322 323 323 323 322 323 324 325 324 324 326 327 328 328 327 328 332 336 339 339 340 340 341 342 343 343 344 345 346 347 347 348 348 348 348 348 349 349 350 350 350 350 349 349 348 349 350 350 348 346 344 343
321 321 321 321 322 324 324 325 328 326 323 324 326 326 325 324 324 324 325 325 324 323 322 323 323 322 322 322 323 324 324 324 325 326 329 329 328 328 332 336 338 339 339 340 341 342 342 343 343 345 346 346 347 347 348 348 348 348 350 350 350 351 351 351 351 351 351 352 352 350 347 345 344 343
320 320 320 321 322 324 325 326 326 323 323 325 326 325 324 323 323 324 324 324 323 322 322 322 323 322 321 321 322 323 324 324 324 325 327 329 329 328 332 336 338 338 338 340 341 342 343 343 344 345 346 345 344 345 347 348 349 349 350 351 351 352 352 351 351 352 352 353 352 349 347 345 344 343
321 321 322 323 325 326 326 325 324 323 324 326 325 323 323 322 322 322 323 323 322 321 322 322 322 322 321 321 322 323 324 324 323 323 325 328 329 329 331 335 338 338 339 340 342 343 344 345 346 345 344 341 341 343 344 346 348 349 349 350 351 351 351 351 351 351 352 352 350 349 347 344 343 344
322 323 324 324 324 324 323 323 323 325 326 325 323 321 321 320 320 320 321 322 321 321 321 322 322 322 321 321 322 322 323 324 323 323 324 328 331 330 331 335 337 338 339 340 341 342 343 344 346 345 343 340 340 341 341 342 346 348 348 348 349 350 350 351 350 350 350 350 349 347 345 343 343 345
323 323 323 323 323 322 323 325 325 326 325 323 321 320 319 318 319 319 318 319 320 320 321 322 322 322 321 321 321 322 322 323 323 322 324 329 332 331 332 335 337 337 338 340 340 341 342 344 345 347 345 343 340 341 340 340 343 346 347 346 346 347 348 348 348 349 348 348 346 345 343 342 343 344
322 322 321 322 322 323 325 326 326 325 324 322 320 320 319 317 317 317 317 318 318 319 320 320 321 321 321 320 320 321 322 323 323 322 323 329 334 334 333 335 337 337 338 339 340 340 341 343 344 346 346 344 342 341 341 340 340 344 346 345 344 345 345 345 346 347 347 346 345 344 344 342 342 343
321 321 321 322 323 324 325 326 326 326 325 321 319 320 318 316 316 316 317 317 318 318 319 320 320 321 320 320 319 320 321 323 323 322 322 327 333 336 335 335 336 337 338 338 339 341 341 342 344 345 344 343 342 342 341 340 339 341 344 345 344 344 344 344 345 345 345 345 344 343 343 342 342 342
320 321 323 324 324 325 325 325 325 324 322 319 318 318 317 316 315 315 316 317 317 318 318 319 319 320 320 319 319 319 321 323 323 322 321 323 329 335 337 337 336 336 338 338 339 340 340 340 343 344 342 342 343 342 342 341 339 340 342 344 344 344 344 343 343 344 343 342 341 341 341 341 342 341
320 322 324 324 323 323 322 321 321 321 319 317 317 317 316 315 314 314 314 315 316 317 317 317 319 319 319 319 319 319 320 322 323 322 321 321 325 330 335 338 338 337 337 338 339 341 342 342 342 343 343 342 342 342 342 341 339 340 342 342 343 343 343 343 343 343 342 341 341 341 341 341 341 340
322 323 323 321 320 320 319 319 318 318 317 317 315 315 315 314 312 312 313 313 314 315 316 316 317 318 318 318 319 319 320 322 323 322 320 320 321 323 327 331 335 337 338 340 341 341 342 343 343 342 342 342 341 341 341 340 339 339 341 341 342 342 342 342 343 343 342 341 341 340 340 340 341 340
322 322 320 318 318 317 316 316 316 315 315 315 313 313 314 312 310 310 311 311 312 313 314 314 315 317 317 317 318 319 319 320 322 322 321 320 320 320 321 323 326 329 333 338 340 341 340 341 341 341 342 342 341 341 341 340 338 339 340 340 340 341 341 342 343 343 343 342 341 339 339 339 339 339
320 318 317 316 316 315 314 314 314 313 312 312 311 311 311 310 308 308 309 310 311 312 312 312 313 314 316 316 317 318 318 319 321 322 322 321 320 319 320 321 321 322 324 328 333 337 339 340 340 340 340 340 339 338 339 339 340 340 340 341 341 342 342 342 342 342 342 342 341 339 338 338 338 338
317 316 315 314 314 313 312 312 311 310 310 310 309 309 309 307 306 306 307 308 309 310 310 310 311 312 314 315 316 317 317 318 319 321 322 322 322 320 320 320 320 321 321 323 325 328 333 338 340 339 338 338 339 338 337 337 339 340 341 340 341 342 342 342 342 342 342 341 341 340 339 339 338 338
315 314 313 312 311 311 310 309 308 308 308 308 308 308 308 306 305 305 306 306 307 308 308 309 309 310 311 312 314 315 316 316 317 319 321 322 322 322 321 320 319 319 320 322 323 323 325 330 335 337 338 339 341 340 336 334 335 338 339 339 340 341 341 341 341 341 341 341 340 340 339 339 338 339
314 313 312 310 310 309 308 307 307 306 306 306 306 306 307 306 304 304 304 305 306 307 307 307 308 308 309 310 311 314 315 315 315 317 319 320 321 322 323 322 321 319 319 320 322 323 323 324 327 329 331 335 338 338 335 331 329 330 333 337 339 340 340 339 339 340 341 340 340 339 339 339 339 339
313 312 311 310 309 309 308 307 307 306 305 304 303 304 305 304 302 302 303 303 304 305 305 306 306 307 308 308 309 311 314 314 314 315 317 318 319 319 321 323 323 322 320 319 320 322 323 323 323 324 325 328 330 331 330 327 324 325 329 335 338 339 339 339 339 339 339 339 339 339 339 339 339 339
311 311 311 310 309 308 307 306 306 305 304 303 302 302 303 302 301 301 301 302 303 303 304 304 305 306 307 308 308 309 311 313 314 314 314 316 317 317 318 320 322 323 322 320 319 321 323 323 323 323 323 324 324 325 325 325 323 324 326 328 332 336 338 338 338 338 338 338 338 338 337 337 338 339
310 309 309 309 308 307 306 305 304 304 303 302 301 300 300 301 301 300 299 300 302 302 303 303 304 304 305 307 307 308 309 311 312 312 312 313 315 315 315 316 319 321 322 322 321 321 322 322 322 322 323 323 322 322 323 324 323 323 323 322 324 327 331 333 334 335 336 337 337 337 336 336 336 336
308 307 307 306 306 305 304 303 303 302 301 301 301 299 298 299 300 299 299 299 301 301 302 302 302 303 304 305 306 307 308 309 311 311 311 311 312 313 313 313 315 317 320 322 322 321 320 319 321 322 322 322 322 323 323 324 323 323 323 322 320 320 322 325 327 328 330 333 334 334 334 334 334 334
306 306 305 304 304 303 303 302 302 301 300 299 299 298 297 296 298 298 299 299 300 301 301 302 302 302 303 303 304 306 307 308 309 310 310 310 310 311 311 311 312 314 317 320 323 323 320 318 320 321 322 322 323 323 324 324 323 323 324 323 321 319 318 319 321 322 325 327 329 331 333 334 333 333
305 304 304 303 303 302 302 301 300 299 298 297 297 297 296 294 295 296 298 298 299 300 301 301 302 302 302 302 303 304 305 306 307 308 309 309 309 309 310 310 311 313 315 317 320 323 322 321 321 322 322 322 322 323 324 324 323 323 323 323 322 320 319 318 319 320 321 322 324 327 329 331 332 332
304 303 303 302 302 301 301 300 298 297 296 295 295 296 294 291 291 294 297 298 298 299 300 301 301 302 302 302 302 303 303 304 305 306 307 308 308 308 309 309 310 311 313 315 317 320 322 322 322 323 323 322 321 322 323 323 323 323 323 322 322 321 320 320 320 319 319 319 320 321 322 324 326 326
Wind_Speed
9 7 7 9 9 9 9 9 9 11 13 14 15 15 14 13 10 8 9 8 11 19 20 20 25 24 23 25 27 28 28 29 30 31 32 33 34 36 38 40 41 41 42 42 43 42 41 41 41 41 40 39 40 41 42 43 43 43 42 41 40 40 40 39 39 38 37 37 36 36 35 34 33 31
9 8 8 8 8 8 7 7 9 11 12 13 13 13 14 14 12 11 12 10 12 20 23 22 25 28 27 27 28 29 28 28 30 32 33 33 33 34 37 39 40 40 40 41 42 43 42 41 41 42 42 41 40 41 42 42 43 44 43 43 42 42 41 41 40 40 39 38 37 37 37 35 34 32
9 10 9 9 7 7 6 6 8 11 11 11 11 12 11 12 12 14 13 10 13 21 24 26 28 30 31 31 30 31 32 30 29 31 33 34 35 37 38 37 36 35 37 38 39 39 40 40 40 42 44 43 41 42 42 42 43 44 44 44 44 43 43 42 42 41 40 39 39 39 38 36 35 33
10 10 9 9 8 8 7 6 8 11 12 11 12 12 11 10 12 14 13 9 14 23 26 28 30 30 31 32 31 32 35 34 31 30 32 34 35 38 38 37 35 34 34 35 36 36 38 39 40 41 43 43 43 42 42 43 43 43 44 44 44 44 44 43 43 42 41 41 40 40 39 38 36 34
11 10 10 10 10 9 8 8 9 11 12 13 14 14 13 13 13 13 13 11 13 22 28 29 31 30 29 30 30 30 33 34 31 30 31 32 33 36 37 36 35 35 35 35 35 35 36 38 39 41 42 42 42 43 43 43 44 44 44 44 44 44 44 44 44 43 43 42 42 42 41 39 37 35
12 11 11 11 11 10 9 9 10 12 12 13 16 17 15 16 16 15 15 15 13 18 26 31 32 30 27 28 29 28 30 32 31 30 31 32 32 33 36 37 37 37 37 37 36 35 35 36 38 40 41 41 42 42 43 43 44 44 44 44 45 44 44 44 44 44 43 43 44 43 41 39 37 35
12 12 12 12 13 12 11 12 12 12 13 14 16 18 18 18 19 18 17 18 17 18 23 29 32 30 28 28 29 28 29 30 30 31 32 33 33 33 35 37 39 39 39 39 38 36 34 34 36 39 40 40 41 42 42 42 43 44 44 45 45 45 44 44 43 43 43 44 44 43 41 39 37 35
11 13 14 13 13 13 13 13 13 12 14 15 16 18 19 19 20 20 19 19 21 21 23 27 30 30 29 28 28 28 28 29 28 30 32 33 33 34 35 36 38 38 38 38 39 38 36 35 36 39 40 40 41 41 42 42 42 42 43 44 44 44 43 43 43 42 43 43 43 41 40 38 36 34
12 13 14 15 15 15 14 14 14 14 15 16 17 18 19 20 20 21 21 21 23 24 24 27 30 31 29 28 28 27 27 28 28 29 31 32 32 33 35 36 38 37 36 36 36 37 39 39 38 39 41 41 41 42 42 42 42 41 42 42 43 43 42 42 42 41 41 41 40 39 38 37 35 32
13 13 15 16 15 13 13 14 16 16 16 17 19 19 20 21 21 21 22 22 23 25 26 26 28 29 27 26 26 26 25 27 27 27 28 30 31 31 32 34 37 37 36 35 34 35 38 40 39 39 41 41 41 42 43 43 42 41 41 41 41 42 42 42 41 40 39 38 38 37 36 35 33 31
13 14 15 15 15 15 16 16 16 17 18 19 20 21 21 22 22 21 23 23 23 25 25 24 24 25 26 25 25 26 26 26 27 27 25 26 29 30 30 31 34 35 35 35 34 35 36 38 39 40 41 41 40 40 41 42 42 42 41 40 40 41 41 41 40 39 38 36 36 35 34 33 32 31
14 15 15 15 16 17 18 16 16 17 19 20 21 21 22 22 21 21 23 23 23 24 23 23 23 23 24 24 24 25 24 22 24 25 24 24 27 27 28 29 31 32 33 34 35 35 36 36 37 39 41 41 40 40 40 41 41 42 41 41 40 40 41 41 40 38 37 36 35 34 34 33 32 31
15 15 15 14 16 17 18 17 17 18 19 19 19 21 22 22 21 22 23 23 23 22 21 22 22 21 21 22 22 22 22 21 23 25 24 24 26 27 27 30 31 30 31 33 34 36 36 36 37 39 41 42 42 42 41 41 41 41 41 41 40 40 41 40 39 37 36 35 35 34 34 33 32 30
15 15 15 15 18 19 19 18 18 18 18 18 19 21 21 21 21 22 24 24 23 21 20 21 22 19 19 22 22 21 23 25 26 26 25 24 25 26 23 26 31 32 31 31 33 37 37 34 35 37 40 43 43 43 43 43 42 41 40 40 40 40 40 40 38 36 35 34 34 34 34 33 32 31
14 15 16 17 19 20 19 17 18 18 17 18 20 20 20 20 22 23 24 25 24 22 20 22 23 20 20 23 25 24 24 25 26 26 25 24 24 22 16 16 22 28 30 30 31 35 36 33 33 36 38 41 42 43 44 44 42 41 39 39 39 40 40 39 37 35 34 34 34 34 34 33 32 31
14 15 17 18 19 20 19 18 17 18 18 18 20 19 20 22 24 22 22 23 25 24 22 23 24 23 23 25 26 24 24 24 26 27 27 25 23 21 18 16 18 23 27 29 29 31 33 31 31 35 37 39 40 41 43 43 42 41 39 37 38 38 38 37 36 34 34 34 34 34 34 33 33 32
14 15 17 18 20 19 18 17 16 16 17 18 19 20 21 24 23 22 22 22 22 23 23 24 26 28 27 26 27 28 27 27 27 26 27 27 24 22 22 23 25 25 25 27 27 27 29 30 30 33 36 37 37 38 40 42 42 40 38 36 36 37 36 35 35 35 35 35 35 34 34 34 33 32
14 16 17 18 19 18 17 17 16 16 16 18 19 21 23 24 22 22 24 23 21 22 23 24 28 32 33 31 32 34 32 30 28 27 28 28 25 24 25 27 30 29 27 27 24 20 25 28 28 31 35 35 35 36 38 40 41 40 38 36 36 36 36 35 35 36 36 35 35 34 34 34 33 33
15 16 17 17 17 18 18 18 16 15 16 18 20 23 24 23 21 22 24 24 23 24 26 28 31 34 36 36 36 37 36 33 31 31 32 32 30 28 27 27 29 30 30 29 24 17 20 25 26 30 35 33 33 36 36 37 39 40 39 38 37 36 36 36 36 36 37 36 35 35 35 35 34 34
17 17 16 15 16 18 20 18 15 14 16 19 22 24 23 20 20 22 23 24 25 28 31 33 34 35 36 37 37 37 36 36 36 34 34 34 33 29 24 22 24 27 28 29 27 19 19 22 25 28 31 31 32 34 35 36 38 38 38 37 37 37 37 37 38 38 38 38 37 37 37 36 35 34
17 16 14 14 16 18 17 15 14 14 17 20 21 20 19 18 20 23 24 25 27 30 33 35 35 35 36 35 35 36 34 34 35 32 32 33 30 24 17 14 17 22 24 27 28 23 20 22 24 24 26 27 31 33 34 36 37 36 37 36 35 35 35 36 37 39 40 40 38 38 37 36 35 34
16 15 15 15 15 15 14 15 15 15 18 19 17 15 15 18 21 23 25 27 29 31 34 35 34 35 36 34 34 34 33 33 32 29 32 34 29 23 18 14 14 17 21 26 28 24 21 23 24 22 19 20 27 32 32 33 35 35 35 35 34 34 33 33 34 36 37 37 35 33 33 32 32 32
16 17 17 15 13 13 16 17 16 17 19 17 13 12 14 16 20 23 24 26 28 30 33 34 34 35 37 35 34 34 34 33 31 27 28 33 31 26 22 19 13 10 15 25 29 24 21 23 24 21 13 9 16 27 31 31 32 33 33 34 34 34 33 32 32 32 32 31 29 28 27 27 27 27
18 19 17 14 12 15 17 16 17 20 20 15 12 12 13 15 18 21 23 23 24 27 30 32 33 35 37 37 36 35 34 34 32 28 25 28 34 30 25 24 18 12 15 24 29 27 22 21 23 23 18 8 5 13 23 29 30 30 30 31 32 33 33 34 34 33 31 29 28 27 26 25 25 26
18 17 16 14 14 15 16 17 20 23 18 12 10 13 14 15 17 19 20 20 22 24 27 30 32 34 37 38 37 36 35 35 34 31 27 25 33 34 30 26 21 20 21 22 27 30 24 20 20 20 19 15 8 5 11 20 26 28 28 29 30 31 32 34 35 34 32 30 28 28 27 26 25 25
15 16 16 15 14 15 17 20 21 19 12 8 10 13 14 15 16 17 17 18 20 23 25 27 29 32 35 36 38 38 37 37 37 35 30 24 29 36 35 30 25 24 25 23 26 29 25 21 22 19 15 15 13 8 6 9 16 23 26 27 28 29 29 31 33 34 32 30 30 29 27 25 24 25
15 15 14 14 14 17 19 18 15 11 6 6 10 13 15 16 16 16 16 17 19 21 23 25 27 29 32 35 36 38 39 40 40 38 33 22 25 34 36 34 30 28 27 24 25 29 27 22 21 21 20 18 12 7 6 7 10 17 22 25 26 26 26 28 30 30 31 31 30 28 25 23 23 24
13 13 13 14 16 16 14 12 8 4 4 8 12 14 18 19 18 18 19 19 19 20 21 23 26 27 30 34 36 38 40 40 38 38 32 18 20 32 34 35 33 31 29 25 23 26 28 26 22 22 24 23 16 10 9 9 11 16 20 19 19 21 24 25 27 29 30 29 28 26 24 23 24 25
12 13 14 14 12 10 8 7 5 2 4 11 14 14 17 20 20 20 20 19 18 19 19 21 24 27 30 34 37 39 39 37 37 37 31 16 13 27 32 33 32 31 30 29 27 26 26 27 26 23 23 23 21 18 15 13 14 18 19 17 16 18 22 23 25 27 29 27 27 27 26 26 27 27
12 12 11 10 8 6 5 5 4 2 5 12 14 13 16 19 19 20 19 18 18 19 19 21 24 27 30 34 37 40 39 36 37 38 32 20 6 18 28 29 29 31 30 29 30 30 28 27 27 26 24 23 22 23 21 18 17 18 20 19 16 14 18 23 25 25 26 27 27 28 27 26 27 28
10 9 8 7 6 6 6 7 6 5 8 11 12 12 14 17 18 19 18 16 17 19 20 22 24 28 31 33 36 40 39 37 38 39 34 28 16 6 20 24 24 27 30 29 30 31 30 29 29 27 26 23 20 21 21 18 17 17 20 22 20 14 14 21 25 24 23 24 24 24 25 25 26 26
8 7 7 8 9 9 9 10 9 8 10 12 13 13 14 16 18 19 19 19 19 21 22 24 25 29 32 32 34 38 37 36 38 40 38 35 29 16 3 14 17 20 23 25 27 29 30 31 31 30 29 26 22 21 20 17 17 19 19 22 24 19 13 16 21 22 20 20 21 23 24 25 26 27
7 6 8 10 12 11 11 11 10 10 11 13 14 15 15 16 19 20 21 23 23 23 24 25 26 28 30 31 33 35 35 36 38 39 39 37 35 32 21 8 6 11 18 22 24 25 27 29 30 29 27 24 22 23 22 17 17 20 21 21 22 21 18 18 20 21 22 22 22 23 23 25 26 26
6 8 11 12 13 13 13 12 11 11 12 14 16 17 17 17 20 21 21 23 23 23 24 25 25 27 28 30 32 33 33 34 36 36 37 36 34 34 29 22 17 12 5 14 22 25 26 26 25 24 23 21 20 21 23 20 18 22 25 24 22 22 23 24 22 22 25 26 24 22 22 23 25 24
8 11 13 13 13 12 12 12 11 11 12 14 16 17 17 18 20 21 21 21 22 23 25 26 26 27 27 28 30 31 31 32 32 33 33 34 35 34 29 24 25 25 19 8 5 15 24 28 27 21 18 17 15 13 17 20 21 23 23 23 23 23 24 26 25 24 26 27 26 22 20 20 23 24
11 12 12 13 12 11 11 11 10 10 11 13 15 16 17 19 21 20 20 20 20 21 24 26 26 27 27 27 29 30 31 31 30 30 31 31 30 31 29 28 28 26 25 23 19 9 7 24 32 24 11 7 7 6 8 12 16 20 21 21 22 23 23 25 25 25 26 27 28 25 21 20 22 24
12 12 12 12 11 10 10 10 10 11 12 13 14 15 15 17 19 19 18 19 20 20 22 24 25 26 27 28 29 29 30 31 29 28 29 29 27 26 27 28 30 30 28 27 27 25 15 9 23 21 9 5 6 4 4 6 8 12 16 18 20 22 23 23 22 23 25 26 27 26 22 20 21 24
11 11 11 11 10 10 10 10 11 13 13 13 14 15 14 16 18 19 19 21 21 20 21 24 26 27 27 28 28 27 28 30 30 28 28 28 27 26 25 25 26 29 30 30 29 28 24 19 18 16 9 4 4 3 3 4 3 2 5 13 17 20 24 23 20 20 22 24 25 25 23 22 22 22
11 10 10 9 8 9 10 10 11 12 13 14 15 15 15 16 19 20 20 21 21 21 22 24 25 27 27 28 28 27 25 26 28 28 27 27 27 26 26 24 24 25 27 29 30 28 26 25 25 23 20 14 7 7 10 10 11 14 7 7 14 18 23 25 23 22 22 22 23 22 21 21 20 20
9 9 9 8 8 9 9 9 10 11 12 14 15 14 14 16 18 19 20 21 20 21 22 24 25 26 27 27 29 28 26 25 26 27 27 27 27 27 26 25 23 23 22 23 25 27 27 27 25 22 22 23 23 23 23 20 21 26 25 15 5 8 16 20 23 25 25 24 24 23 21 19 18 18
8 9 9 8 8 9 9 9 9 10 11 12 14 14 14 14 16 18 19 20 20 21 22 24 25 26 26 26 27 27 26 25 26 27 28 27 27 27 28 27 24 23 20 18 21 25 27 26 25 23 21 25 30 31 24 16 15 21 28 30 27 21 15 9 9 16 22 26 28 26 23 22 22 20
9 9 8 7 7 9 10 10 9 10 11 12 12 13 13 13 14 16 18 20 21 21 22 24 25 25 26 26 26 26 26 25 25 26 27 27 27 27 28 26 23 21 20 18 18 21 24 25 26 27 27 29 31 25 14 8 10 14 19 25 29 31 32 29 24 17 13 17 21 21 21 20 17 14
8 8 7 7 7 8 10 10 9 9 10 11 11 12 13 13 14 16 17 19 20 21 21 22 23 24 25 26 25 25 25 25 25 24 25 25 25 25 25 25 23 21 21 20 18 18 20 22 25 27 28 28 26 21 14 13 15 16 17 19 22 27 30 31 31 32 29 22 15 14 18 20 15 11
8 7 7 8 7 8 9 10 9 8 8 9 10 11 12 12 13 13 15 16 18 19 20 20 22 23 24 25 25 25 25 24 24 23 23 24 24 23 24 25 25 25 25 24 21 18 18 18 20 22 23 23 23 21 18 17 17 18 18 19 20 22 25 27 27 29 33 35 32 27 23 24 23 22
9 8 7 7 8 8 8 8 9 8 8 8 8 10 11 12 12 12 13 15 17 18 18 19 21 21 22 23 24 24 24 24 24 23 22 23 23 24 24 25 26 27 26 25 23 20 18 16 17 18 19 19 20 20 19 18 18 19 19 20 20 20 21 24 25 25 28 31 31 31 30 30 30 29
Wind_Direction
325 321 329 336 334 341 351 350 350 347 338 334 329 319 308 300 298 307 308 302 301 303 304 301 299 299 296 293 295 293 283 273 267 262 259 256 255 254 252 248 247 247 247 246 244 242 243 242 243 244 246 247 246 245 245 245 246 246 247 247 246 246 247 247 248 249 250 251 252 254 255 256 256 257
318 310 316 327 332 339 347 345 344 345 342 339 336 333 326 311 296 296 305 302 300 304 304 300 298 299 298 293 290 290 286 281 275 268 264 262 258 253 249 247 248 248 247 247 245 243 243 243 243 244 246 248 248 247 247 246 246 247 247 247 246 246 247 247 248 248 249 250 252 253 255 256 257 257
310 304 306 314 324 330 331 329 333 339 341 338 336 336 335 326 311 304 306 303 304 308 307 303 301 299 297 295 289 284 281 281 282 277 270 266 261 253 247 246 248 248 246 244 244 244 243 244 244 244 246 248 249 249 248 248 248 248 248 248 248 248 248 248 248 249 249 250 252 253 255 256 257 259
302 300 299 301 310 318 311 302 315 331 336 333 330 330 330 334 330 317 307 296 302 309 308 305 304 302 298 294 289 284 281 280 279 278 275 270 261 252 247 246 246 246 244 241 241 243 243 243 244 245 246 249 250 249 249 250 249 249 249 249 249 249 248 249 249 249 250 251 252 253 254 256 258 260
304 304 295 293 300 305 298 292 304 320 328 325 323 326 325 326 333 325 307 294 298 309 312 310 307 306 301 293 286 283 282 281 277 274 274 272 262 250 247 248 246 244 243 241 241 242 242 242 243 244 246 250 251 250 250 250 250 250 250 250 250 250 249 250 250 251 251 252 252 253 254 256 258 260
302 299 291 290 294 294 288 288 298 310 318 318 319 322 322 318 323 325 310 298 296 306 313 314 311 310 305 294 287 282 278 278 277 272 270 271 266 257 252 249 247 247 245 244 244 244 243 243 242 243 246 249 251 251 251 251 251 252 252 251 251 251 251 251 252 252 252 252 252 252 254 256 257 259
296 290 285 287 289 284 281 285 291 299 307 312 313 316 318 313 314 318 314 304 298 301 309 312 311 310 307 296 289 285 278 275 275 272 270 269 269 267 262 256 251 249 248 246 245 244 243 243 243 244 247 249 250 250 251 251 251 252 252 252 252 252 252 252 252 252 252 251 252 252 253 255 256 257
293 291 288 289 287 278 274 278 282 288 298 305 306 309 313 311 310 314 314 306 301 299 304 308 308 306 305 298 290 285 281 276 272 271 270 268 266 267 267 264 259 254 251 248 247 245 243 244 245 246 248 249 249 249 250 250 251 252 252 252 252 252 251 251 251 251 251 251 251 252 253 254 255 256
290 289 290 293 290 280 276 276 276 280 290 297 300 305 310 310 309 311 313 308 303 300 300 303 306 305 302 298 291 285 280 276 273 270 268 265 263 263 264 263 262 258 254 250 249 248 247 246 247 248 248 248 248 249 250 250 250 251 251 252 251 250 249 249 250 250 250 250 250 250 251 252 253 253
296 289 292 295 291 285 286 283 277 278 284 291 298 303 307 309 309 308 310 309 305 301 299 300 302 302 301 299 294 289 283 276 272 270 269 266 262 260 261 260 258 255 251 249 247 248 248 246 245 247 248 248 248 249 250 250 249 249 250 251 250 248 248 248 249 249 249 249 248 249 249 250 249 249
299 294 297 295 290 290 292 285 276 276 282 290 299 302 304 307 307 305 307 308 305 302 301 299 299 300 300 299 296 295 291 281 274 270 267 267 264 259 257 255 253 249 246 245 244 243 245 245 246 248 248 248 248 249 249 249 248 248 249 250 250 248 246 246 248 248 248 247 247 247 247 247 246 247
301 298 298 293 291 297 299 289 276 276 286 295 298 300 303 306 305 304 305 305 303 302 300 300 300 301 301 301 300 299 294 283 274 269 262 261 262 259 255 251 249 245 241 241 241 242 243 244 245 247 247 247 248 249 249 247 247 247 248 249 249 247 245 245 246 247 247 246 246 246 245 244 245 247
306 302 299 295 297 305 307 297 283 280 288 293 294 299 305 305 304 305 305 303 301 301 301 302 303 304 303 302 302 301 295 286 280 274 265 260 260 260 257 253 251 247 244 243 243 244 244 243 244 245 245 247 247 247 246 245 245 246 247 248 248 246 244 244 244 245 245 245 245 244 243 243 244 247
306 302 300 298 301 307 309 302 291 288 291 292 293 300 304 304 305 306 303 301 301 301 302 302 304 305 303 302 300 297 296 294 290 281 269 263 263 260 256 256 254 250 246 244 244 246 245 242 242 243 244 246 247 245 243 243 244 245 245 244 244 243 242 241 242 242 242 242 241 241 241 243 245 247
304 299 297 300 304 309 310 306 298 297 299 297 297 300 300 301 305 304 298 297 300 302 300 301 302 301 299 301 300 295 293 294 293 286 275 264 260 256 252 254 253 247 241 237 240 246 245 239 238 240 242 244 245 244 244 243 243 244 243 242 241 240 239 239 239 239 238 238 238 239 241 243 245 248
300 297 299 304 310 313 314 310 304 301 302 300 298 297 298 302 308 308 302 298 298 298 297 298 300 300 299 300 298 294 293 292 291 290 283 271 258 250 247 248 249 246 238 230 232 242 244 237 234 237 240 243 244 246 245 243 242 242 241 241 240 238 236 236 236 236 235 235 237 239 242 244 246 249
298 298 303 310 316 319 318 317 314 309 305 302 298 297 302 307 311 315 313 307 304 302 298 296 298 302 303 300 296 294 292 288 286 286 283 278 265 250 246 248 248 246 238 226 226 237 241 234 230 235 239 241 242 244 244 242 241 241 240 241 240 237 234 234 234 234 235 236 238 240 243 245 248 250
300 303 307 312 316 320 319 319 320 316 308 303 301 302 308 312 315 319 320 319 318 315 309 302 302 307 307 301 296 296 291 283 277 274 274 276 270 258 253 253 252 248 238 226 223 233 238 230 227 233 238 239 239 239 241 241 239 239 240 241 241 238 235 234 234 234 236 237 239 242 244 247 249 252
300 303 308 312 314 317 319 319 317 311 305 304 305 308 311 313 315 320 322 324 324 323 320 314 309 311 312 307 302 300 294 285 276 269 266 267 269 269 266 259 255 251 240 226 218 227 236 226 222 231 236 236 237 237 237 239 239 240 242 243 242 241 238 236 235 236 238 240 242 245 247 249 252 254
298 302 308 311 315 319 320 317 310 305 305 306 308 309 310 311 316 321 324 327 329 328 327 323 319 319 318 315 312 308 302 293 283 273 264 259 261 266 267 257 249 246 237 225 217 224 236 226 221 230 234 232 234 235 235 236 238 241 243 244 243 242 240 239 239 240 242 244 246 249 251 253 254 256
301 307 308 308 314 318 319 315 309 307 310 311 309 308 307 309 315 321 326 329 330 331 330 329 329 327 324 320 318 315 310 303 293 275 256 248 249 251 253 249 239 234 230 225 219 222 233 230 223 230 233 231 233 235 234 235 236 238 240 242 243 242 241 241 243 244 245 247 250 252 254 255 255 255
305 303 300 305 312 314 317 316 310 311 317 316 312 309 309 310 313 318 323 326 328 331 333 333 332 330 327 324 322 320 318 313 304 281 254 243 237 234 237 238 231 226 226 224 220 219 229 230 225 227 232 233 234 235 235 235 235 236 238 239 240 242 243 244 245 246 247 248 250 252 253 253 252 251
306 300 301 311 314 309 313 312 306 311 319 317 311 311 311 309 308 314 321 324 328 333 335 334 332 332 330 328 326 326 325 321 316 301 270 245 229 224 231 232 223 220 225 223 217 215 222 226 222 220 219 229 239 237 236 236 235 235 237 237 238 240 242 243 245 245 244 244 246 247 247 245 244 245
308 308 314 322 317 310 311 308 304 312 315 309 307 314 313 308 308 316 324 328 332 336 335 332 332 333 332 331 329 328 329 327 325 320 295 254 227 218 226 226 218 218 227 221 214 212 215 218 218 216 210 207 240 239 234 233 233 233 235 235 235 236 237 239 241 240 239 240 240 240 240 239 240 243
309 315 322 325 322 317 310 303 306 313 310 300 309 323 322 317 318 322 326 331 337 340 337 333 333 334 334 333 331 329 329 331 330 327 314 271 233 218 219 222 216 219 227 221 211 209 210 210 212 210 206 211 229 246 233 228 224 224 228 230 231 232 233 234 236 236 234 232 232 232 234 237 240 240
313 319 322 323 323 317 307 304 308 313 307 298 320 333 334 330 330 330 329 335 345 347 341 335 333 333 334 333 333 331 331 333 332 330 323 290 241 222 219 220 217 217 221 217 209 208 207 208 209 201 191 208 226 233 225 221 218 219 222 226 228 229 230 231 231 231 229 226 226 227 231 237 238 233
316 319 320 319 316 311 307 308 313 317 315 328 345 351 352 349 347 346 346 351 354 350 345 338 332 333 335 334 333 332 333 334 333 331 328 301 245 224 219 219 222 224 223 217 211 211 211 211 212 205 195 196 204 209 209 209 210 211 215 221 225 225 226 227 226 224 222 221 222 225 229 232 231 224
315 315 316 313 311 311 310 314 329 337 348 5 7 2 360 1 4 5 4 2 355 349 347 341 333 332 337 337 334 333 334 334 334 333 334 313 242 223 218 217 221 226 226 222 217 217 217 215 214 210 202 194 188 190 201 202 202 204 206 209 216 220 221 221 219 216 216 218 221 224 227 227 222 217
303 305 309 308 310 319 324 338 8 23 4 11 11 1 358 5 11 12 8 2 355 350 348 342 334 333 339 341 339 337 337 339 341 343 344 334 241 220 217 216 219 223 225 225 223 221 219 218 217 214 208 203 200 198 195 192 199 207 205 198 205 220 222 218 216 216 217 219 223 227 230 228 221 215
293 301 309 313 323 343 357 13 36 36 5 9 8 359 357 3 9 10 5 358 353 350 348 344 337 336 341 344 344 345 345 346 350 351 352 352 299 219 212 211 217 222 223 224 225 223 220 219 218 213 208 206 209 210 204 195 197 210 213 203 199 213 221 217 216 218 220 223 227 230 230 227 222 218
305 312 327 350 11 35 54 55 51 38 16 9 4 359 359 1 5 6 4 358 352 349 349 347 344 345 347 348 349 349 349 351 355 358 1 6 6 254 212 205 210 219 222 222 224 224 222 221 220 214 206 200 203 211 208 193 187 202 213 209 201 198 207 210 210 214 220 223 224 224 223 220 219 219
322 335 4 40 62 74 71 59 47 30 16 8 5 4 2 2 3 5 8 7 0 356 355 353 353 353 352 351 351 351 350 352 358 3 9 14 20 19 257 210 205 210 214 217 219 219 217 217 215 213 210 204 200 203 201 190 187 195 204 210 209 205 202 204 205 210 216 216 213 214 216 216 217 218
335 4 37 61 70 67 59 49 36 22 12 6 4 4 4 5 5 6 9 9 3 358 358 357 357 357 353 352 353 354 353 354 358 6 13 16 22 27 22 351 247 215 206 203 205 205 206 207 206 205 209 211 210 206 199 190 192 202 208 211 211 209 212 212 206 205 208 206 204 207 210 214 217 220
14 45 60 65 60 54 51 43 28 19 14 7 3 3 3 4 6 6 8 7 3 360 359 359 1 360 355 354 355 354 353 355 359 7 14 17 23 28 25 16 8 353 268 202 193 191 191 193 193 190 191 196 202 207 203 194 195 207 214 214 209 206 212 215 209 204 205 205 200 198 203 209 215 220
60 70 70 63 55 51 49 40 26 19 18 12 7 5 5 5 7 7 6 5 4 2 1 1 5 3 357 355 357 355 354 355 358 5 11 17 22 25 23 22 19 9 0 8 152 181 186 181 172 163 162 167 174 191 199 196 198 203 207 209 208 204 205 210 210 205 202 201 197 194 196 204 212 219
79 78 72 63 57 52 47 39 29 25 24 19 13 11 9 7 9 9 7 8 9 6 2 2 4 3 358 356 358 359 358 357 358 2 7 13 18 22 23 23 21 13 8 14 28 42 176 176 165 156 148 144 148 166 180 184 195 201 201 202 205 204 202 205 209 205 198 194 194 195 196 201 209 216
83 79 72 64 60 56 51 45 38 35 33 25 18 16 14 10 10 11 11 15 17 12 6 4 4 4 3 1 359 360 2 2 1 1 6 10 11 16 22 23 19 16 11 12 23 31 33 127 151 152 156 158 152 154 151 155 178 198 203 203 203 204 203 199 198 199 196 192 194 198 200 202 207 211
84 81 75 65 61 59 54 48 41 37 34 27 20 18 17 13 13 14 16 20 20 15 11 10 8 7 7 6 2 359 1 4 4 3 7 11 11 12 19 20 18 17 15 12 19 27 29 45 80 96 100 130 165 156 125 120 91 70 215 212 207 206 206 201 194 197 199 196 197 201 205 211 214 211
85 86 81 70 63 58 51 44 38 34 29 25 23 23 19 15 16 18 20 22 22 18 15 13 11 9 8 8 6 3 2 6 7 5 6 11 12 11 15 17 16 17 18 16 16 20 25 34 49 63 71 74 77 93 104 102 72 56 66 203 209 205 203 200 195 195 198 199 196 192 195 203 208 206
89 87 82 76 68 57 49 43 39 35 30 24 23 25 25 21 19 21 22 23 24 22 19 17 13 10 8 8 8 7 5 7 9 8 8 12 14 14 16 16 15 15 20 21 18 16 19 26 36 53 72 79 80 81 85 83 69 59 59 62 93 178 194 199 197 192 190 190 184 174 170 173 175 181
93 88 77 73 67 58 50 43 41 39 34 26 21 23 27 28 25 23 24 26 26 24 21 19 16 12 9 8 8 8 7 6 9 10 11 13 15 16 19 20 15 13 16 22 21 17 16 24 37 53 69 79 80 76 71 65 59 57 57 58 61 69 80 102 162 180 182 182 176 163 155 155 155 157
87 86 74 65 62 58 51 42 39 39 37 31 22 18 23 31 31 26 25 28 29 27 24 21 17 14 12 10 9 9 8 7 8 11 12 14 14 15 18 18 14 11 14 19 22 22 21 26 38 49 58 66 71 72 71 68 63 60 58 58 59 61 62 62 65 79 120 165 173 163 154 151 146 143
83 87 77 65 59 58 51 43 36 34 35 34 27 18 18 26 30 26 26 28 28 26 24 22 18 16 14 12 11 11 10 9 10 11 13 16 16 14 13 14 13 16 20 22 23 30 35 34 36 43 50 56 61 66 72 75 70 63 59 60 62 62 62 61 59 60 68 83 102 127 148 154 149 144
82 82 74 64 58 57 54 46 40 34 32 33 32 25 19 21 25 26 28 30 29 26 24 21 19 16 14 14 13 14 13 12 12 13 14 16 17 16 15 15 16 19 23 22 21 26 37 41 41 43 47 51 55 59 62 66 68 66 62 61 63 65 67 66 62 57 60 66 70 77 94 110 114 117
80 76 76 70 61 55 51 45 39 33 27 25 29 30 26 23 25 29 32 33 32 29 25 22 20 18 16 15 15 14 15 15 15 16 16 16 17 17 17 17 18 19 20 20 18 18 26 38 45 49 54 58 61 63 64 65 66 66 63 61 61 62 65 68 68 61 57 61 67 72 77 83 92 99